Location: Alma
(38.7220°N, 88.9090°W)
Time: 02:44:32
(UTC-06:00)

Vanguard 2 - Pass Details

Date: 19 November 2019
Orbit: 553 x 2938 km, 32.9° (Epoch: 06 December)

Event Time Altitude Azimuth Distance (km) Brightness Sun altitude
Rises 10:37:12 0° 263° (W) 4,586 11.4 29.9°
Reaches altitude 10° 10:40:59 10° 259° (W) 3,211 10.7 30.1°
Maximum altitude 10:48:02 49° 187° (S) 1,105 9.8 30.5°
Drops below altitude 10° 10:52:39 10° 113° (ESE) 2,111 10.4 30.7°
Sets 10:54:41 0° 107° (ESE) 2,889 10.9 30.8°
